| time (UTC) | temp C | wind direction | speed KPH | gust KPH | rain 1hr cm | rain 24hr cm | rain mn cm | humidity % | barometer mb |
| 20260503054237 | 3 | 240 | 0.0 | 0.0 | 0.00 | 0.00 | 0.00 | 71 | 1021.3 |
| 20260503053623 | 3 | 267 | 0.0 | 0.0 | 0.00 | 0.00 | 0.00 | 70 | 1021.6 |
| 20260503053051 | 3 | 29 | 0.0 | 1.6 | 0.00 | 0.00 | 0.00 | 68 | 1021.3 |
| 20260503052424 | 4 | 35 | 0.0 | 1.6 | 0.00 | 0.00 | 0.00 | 67 | 1021.3 |
| 20260503051854 | 4 | 9 | 0.0 | 1.6 | 0.00 | 0.00 | 0.00 | 66 | 1021.3 |
| 20260503051244 | 4 | 46 | 1.6 | 1.6 | 0.00 | 0.00 | 0.00 | 65 | 1021.6 |
| 20260503050649 | 5 | 15 | 0.0 | 1.6 | 0.00 | 0.00 | 0.00 | 65 | 1021.3 |
| 20260503050053 | 5 | 50 | 1.6 | 1.6 | 0.00 | 0.00 | 0.00 | 65 | 1021.3 |
| 20260503045418 | 5 | 34 | 1.6 | 3.2 | 0.00 | 0.00 | 0.00 | 65 | 1021.3 |
| 20260503044845 | 5 | 54 | 1.6 | 3.2 | 0.00 | 0.00 | 0.00 | 65 | 1021.3 |
| 20260503044242 | 5 | 33 | 3.2 | 4.8 | 0.00 | 0.00 | 0.00 | 64 | 1021.3 |
| 20260503043639 | 5 | 349 | 3.2 | 4.8 | 0.00 | 0.00 | 0.00 | 64 | 1021.3 |
| 20260503043016 | 5 | 27 | 1.6 | 3.2 | 0.00 | 0.00 | 0.00 | 64 | 1020.9 |
| 20260503042443 | 5 | 41 | 1.6 | 3.2 | 0.00 | 0.00 | 0.00 | 64 | 1020.9 |
| 20260503041823 | 5 | 355 | 0.0 | 1.6 | 0.00 | 0.00 | 0.00 | 64 | 1021.3 |
| 20260503040623 | 5 | 21 | 3.2 | 3.2 | 0.00 | 0.00 | 0.00 | 63 | 1020.9 |
| 20260503040047 | 5 | 31 | 1.6 | 1.6 | 0.00 | 0.00 | 0.00 | 63 | 1020.9 |
| 20260503035451 | 6 | 22 | 3.2 | 3.2 | 0.00 | 0.00 | 0.00 | 62 | 1020.9 |
| 20260503034851 | 6 | 92 | 1.6 | 3.2 | 0.00 | 0.00 | 0.00 | 62 | 1020.9 |
| 20260503034216 | 6 | 4 | 3.2 | 4.8 | 0.00 | 0.00 | 0.00 | 62 | 1020.9 |
| 20260503033638 | 6 | 7 | 4.8 | 6.4 | 0.00 | 0.00 | 0.00 | 62 | 1020.6 |
| 20260503032419 | 6 | 0 | 3.2 | 4.8 | 0.00 | 0.00 | 0.00 | 62 | 1020.6 |
| 20260503031839 | 6 | 77 | 1.6 | 1.6 | 0.00 | 0.00 | 0.00 | 62 | 1020.6 |
| 20260503031244 | 6 | 69 | 3.2 | 4.8 | 0.00 | 0.00 | 0.00 | 61 | 1020.6 |
| 20260503030642 | 6 | 29 | 4.8 | 6.4 | 0.00 | 0.00 | 0.00 | 60 | 1020.9 |
| 20260503030024 | 7 | 51 | 3.2 | 4.8 | 0.00 | 0.00 | 0.00 | 61 | 1020.6 |
| 20260503025424 | 7 | 20 | 3.2 | 4.8 | 0.00 | 0.00 | 0.00 | 60 | 1020.6 |
| 20260503024829 | 7 | 60 | 4.8 | 6.4 | 0.00 | 0.00 | 0.00 | 61 | 1020.6 |
| 20260503024233 | 7 | 43 | 3.2 | 4.8 | 0.00 | 0.00 | 0.00 | 60 | 1020.6 |
| 20260503023618 | 7 | 51 | 3.2 | 4.8 | 0.00 | 0.00 | 0.00 | 60 | 1020.6 |
| 20260503023036 | 7 | 47 | 3.2 | 4.8 | 0.00 | 0.00 | 0.00 | 61 | 1020.6 |
| 20260503022452 | 7 | 352 | 3.2 | 4.8 | 0.00 | 0.00 | 0.00 | 60 | 1020.6 |
| 20260503021852 | 7 | 71 | 3.2 | 4.8 | 0.00 | 0.00 | 0.00 | 60 | 1020.3 |
| 20260503021241 | 7 | 31 | 3.2 | 4.8 | 0.00 | 0.00 | 0.00 | 60 | 1020.3 |
| 20260503020644 | 7 | 66 | 3.2 | 6.4 | 0.00 | 0.00 | 0.00 | 61 | 1020.3 |
| 20260503020048 | 7 | 43 | 4.8 | 6.4 | 0.00 | 0.00 | 0.00 | 61 | 1020.3 |
| 20260503014817 | 8 | 71 | 3.2 | 4.8 | 0.00 | 0.00 | 0.00 | 58 | 1019.9 |
| 20260503014252 | 7 | 23 | 4.8 | 4.8 | 0.00 | 0.00 | 0.00 | 58 | 1019.9 |
| 20260503013627 | 7 | 56 | 0.0 | 0.0 | 0.00 | 0.00 | 0.00 | 60 | 1019.9 |
| 20260503013014 | 7 | 198 | 0.0 | 0.0 | 0.00 | 0.00 | 0.00 | 59 | 1019.9 |
| 20260503011811 | 8 | 58 | 0.0 | 0.0 | 0.00 | 0.00 | 0.00 | 60 | 1019.6 |
| 20260503011231 | 8 | 106 | 0.0 | 0.0 | 0.00 | 0.00 | 0.00 | 60 | 1019.6 |
| 20260503010623 | 8 | 4 | 0.0 | 1.6 | 0.00 | 0.00 | 0.00 | 59 | 1019.6 |
| 20260503010028 | 8 | 8 | 0.0 | 1.6 | 0.00 | 0.00 | 0.00 | 60 | 1019.3 |
| 20260503005413 | 8 | 157 | 0.0 | 0.0 | 0.00 | 0.00 | 0.00 | 59 | 1019.6 |
| 20260503004843 | 8 | 113 | 0.0 | 0.0 | 0.00 | 0.00 | 0.00 | 59 | 1019.3 |
| 20260503004211 | 8 | 196 | 0.0 | 1.6 | 0.00 | 0.00 | 0.00 | 58 | 1019.6 |
| 20260503003641 | 8 | 213 | 0.0 | 1.6 | 0.00 | 0.00 | 0.00 | 58 | 1019.6 |
| 20260503003018 | 8 | 189 | 0.0 | 1.6 | 0.00 | 0.00 | 0.00 | 59 | 1019.3 |
| 20260503001815 | 9 | 11 | 0.0 | 0.0 | 0.00 | 0.00 | 0.00 | 57 | 1019.3 |
| 20260503001232 | 10 | 8 | 0.0 | 1.6 | 0.00 | 0.00 | 0.00 | 56 | 1019.3 |
| 20260503000048 | 10 | 112 | 3.2 | 3.2 | 0.00 | 0.00 | 0.00 | 54 | 1018.9 |
| 20260502235410 | 10 | 265 | 0.0 | 0.0 | 0.00 | 0.00 | 0.00 | 55 | 1018.9 |
| 20260502234841 | 10 | 38 | 0.0 | 0.0 | 0.00 | 0.00 | 0.00 | 55 | 1018.9 |
| 20260502234245 | 10 | 226 | 0.0 | 1.6 | 0.00 | 0.00 | 0.00 | 54 | 1018.9 |
| 20260502233641 | 10 | 339 | 3.2 | 4.8 | 0.00 | 0.00 | 0.00 | 54 | 1018.9 |
| 20260502232429 | 10 | 78 | 3.2 | 4.8 | 0.00 | 0.00 | 0.00 | 53 | 1018.9 |
| 20260502231840 | 10 | 274 | 8.0 | 11.3 | 0.00 | 0.00 | 0.00 | 53 | 1018.9 |
| 20260502231212 | 10 | 230 | 3.2 | 4.8 | 0.00 | 0.00 | 0.00 | 52 | 1018.9 |
| 20260502230630 | 10 | 241 | 1.6 | 3.2 | 0.00 | 0.00 | 0.00 | 52 | 1018.6 |
| 20260502230040 | 11 | 185 | 9.7 | 11.3 | 0.00 | 0.00 | 0.00 | 51 | 1018.9 |
| 20260502225434 | 11 | 275 | 3.2 | 4.8 | 0.00 | 0.00 | 0.00 | 51 | 1018.6 |
| 20260502224832 | 11 | 245 | 1.6 | 3.2 | 0.00 | 0.00 | 0.00 | 51 | 1018.6 |
| 20260502224226 | 11 | 285 | 4.8 | 6.4 | 0.00 | 0.00 | 0.00 | 51 | 1018.6 |
| 20260502223035 | 11 | 311 | 4.8 | 8.0 | 0.00 | 0.00 | 0.00 | 51 | 1018.9 |
| 20260502222421 | 11 | 205 | 9.7 | 11.3 | 0.00 | 0.00 | 0.00 | 51 | 1018.9 |
| 20260502221839 | 11 | 266 | 6.4 | 11.3 | 0.00 | 0.00 | 0.00 | 50 | 1018.9 |
| 20260502221254 | 11 | 212 | 9.7 | 12.9 | 0.00 | 0.00 | 0.00 | 49 | 1018.9 |
| 20260502220621 | 11 | 244 | 9.7 | 14.5 | 0.00 | 0.00 | 0.00 | 49 | 1018.9 |
| 20260502220030 | 11 | 237 | 3.2 | 6.4 | 0.00 | 0.00 | 0.00 | 51 | 1018.2 |
| 20260502215411 | 11 | 252 | 4.8 | 6.4 | 0.00 | 0.00 | 0.00 | 49 | 1018.2 |
| 20260502214823 | 11 | 248 | 11.3 | 12.9 | 0.00 | 0.00 | 0.00 | 49 | 1018.6 |
| 20260502213651 | 11 | 292 | 3.2 | 6.4 | 0.00 | 0.00 | 0.00 | 50 | 1018.6 |
| 20260502213041 | 11 | 27 | 1.6 | 3.2 | 0.00 | 0.00 | 0.00 | 49 | 1018.6 |
| 20260502212448 | 11 | 351 | 3.2 | 3.2 | 0.00 | 0.00 | 0.00 | 51 | 1018.6 |
| 20260502211814 | 11 | 225 | 1.6 | 3.2 | 0.00 | 0.00 | 0.00 | 49 | 1018.6 |
| 20260502211238 | 11 | 281 | 12.9 | 16.1 | 0.00 | 0.00 | 0.00 | 49 | 1018.2 |
| 20260502210627 | 11 | 218 | 8.0 | 9.7 | 0.00 | 0.00 | 0.00 | 48 | 1018.2 |
| 20260502210034 | 11 | 254 | 4.8 | 6.4 | 0.00 | 0.00 | 0.00 | 47 | 1018.2 |
| 20260502205414 | 12 | 342 | 3.2 | 6.4 | 0.00 | 0.00 | 0.00 | 50 | 1018.2 |
| 20260502204235 | 12 | 232 | 1.6 | 3.2 | 0.00 | 0.00 | 0.00 | 46 | 1018.2 |
| 20260502203612 | 12 | 241 | 16.1 | 17.7 | 0.00 | 0.00 | 0.00 | 46 | 1018.6 |
| 20260502203052 | 12 | 212 | 3.2 | 3.2 | 0.00 | 0.00 | 0.00 | 47 | 1018.2 |
| 20260502202443 | 12 | 11 | 4.8 | 6.4 | 0.00 | 0.00 | 0.00 | 45 | 1018.6 |
| 20260502201845 | 13 | 224 | 3.2 | 4.8 | 0.00 | 0.00 | 0.00 | 50 | 1018.6 |
| 20260502201211 | 12 | 174 | 3.2 | 3.2 | 0.00 | 0.00 | 0.00 | 47 | 1018.2 |
| 20260502200650 | 12 | 3 | 6.4 | 9.7 | 0.00 | 0.00 | 0.00 | 48 | 1018.6 |
| 20260502200039 | 12 | 30 | 3.2 | 4.8 | 0.00 | 0.00 | 0.00 | 51 | 1018.6 |
| 20260502195414 | 12 | 350 | 3.2 | 6.4 | 0.00 | 0.00 | 0.00 | 48 | 1018.6 |
| 20260502194838 | 12 | 248 | 9.7 | 12.9 | 0.00 | 0.00 | 0.00 | 46 | 1018.6 |
| 20260502194248 | 13 | 246 | 12.9 | 19.3 | 0.00 | 0.00 | 0.00 | 46 | 1018.6 |
| 20260502193634 | 13 | 204 | 6.4 | 8.0 | 0.00 | 0.00 | 0.00 | 45 | 1018.6 |
| 20260502193038 | 12 | 159 | 1.6 | 3.2 | 0.00 | 0.00 | 0.00 | 49 | 1018.9 |
| 20260502192426 | 12 | 58 | 3.2 | 4.8 | 0.00 | 0.00 | 0.00 | 49 | 1018.9 |
| 20260502191852 | 12 | 59 | 0.0 | 1.6 | 0.00 | 0.00 | 0.00 | 48 | 1018.9 |
| 20260502190615 | 12 | 259 | 1.6 | 3.2 | 0.00 | 0.00 | 0.00 | 48 | 1018.9 |
| 20260502190018 | 12 | 298 | 3.2 | 4.8 | 0.00 | 0.00 | 0.00 | 50 | 1018.9 |
| 20260502185437 | 13 | 36 | 8.0 | 9.7 | 0.00 | 0.00 | 0.00 | 48 | 1018.9 |
| 20260502184255 | 13 | 2 | 3.2 | 4.8 | 0.00 | 0.00 | 0.00 | 51 | 1019.3 |
| 20260502183654 | 12 | 35 | 6.4 | 8.0 | 0.00 | 0.00 | 0.00 | 49 | 1019.3 |
| 20260502183016 | 12 | 336 | 1.6 | 3.2 | 0.00 | 0.00 | 0.00 | 50 | 1019.3 |
| 20260502182440 | 12 | 278 | 3.2 | 4.8 | 0.00 | 0.00 | 0.00 | 48 | 1019.3 |
| 20260502181833 | 12 | 112 | 0.0 | 3.2 | 0.00 | 0.00 | 0.00 | 47 | 1018.9 |
| 20260502181254 | 12 | 177 | 3.2 | 4.8 | 0.00 | 0.00 | 0.00 | 47 | 1019.3 |
| 20260502180621 | 12 | 40 | 4.8 | 6.4 | 0.00 | 0.00 | 0.00 | 51 | 1019.3 |
| 20260502164244 | 12 | 286 | 3.2 | 3.2 | 0.00 | 0.00 | 0.00 | 52 | 1019.9 |
| 20260502163631 | 11 | 48 | 1.6 | 3.2 | 0.00 | 0.00 | 0.00 | 53 | 1019.9 |
| 20260502163053 | 12 | 39 | 6.4 | 8.0 | 0.00 | 0.00 | 0.00 | 52 | 1019.9 |
| 20260502162442 | 12 | 99 | 4.8 | 6.4 | 0.00 | 0.00 | 0.00 | 52 | 1019.9 |
| 20260502161816 | 12 | 50 | 4.8 | 6.4 | 0.00 | 0.00 | 0.00 | 57 | 1019.9 |
| 20260502161221 | 11 | 343 | 9.7 | 11.3 | 0.00 | 0.00 | 0.00 | 55 | 1019.9 |
| 20260502160623 | 11 | 31 | 4.8 | 4.8 | 0.00 | 0.00 | 0.00 | 57 | 1019.9 |
| 20260502151833 | 11 | 291 | 4.8 | 6.4 | 0.00 | 0.00 | 0.00 | 58 | 1020.3 |
| 20260502151241 | 12 | 230 | 4.8 | 6.4 | 0.00 | 0.00 | 0.00 | 64 | 1020.3 |
| 20260502150650 | 11 | 113 | 3.2 | 4.8 | 0.00 | 0.00 | 0.00 | 60 | 1020.3 |
| 20260502130631 | 9 | 337 | 3.2 | 4.8 | 0.00 | 0.00 | 0.00 | 74 | 1019.9 |
| 20260502123635 | 7 | 342 | 1.6 | 3.2 | 0.00 | 0.00 | 0.00 | 83 | 1019.9 |
| 20260502122440 | 6 | 227 | 3.2 | 3.2 | 0.00 | 0.00 | 0.00 | 88 | 1019.9 |
| 20260502121222 | 5 | 219 | 1.6 | 3.2 | 0.00 | 0.00 | 0.00 | 94 | 1019.9 |
| 20260502120644 | 5 | 208 | 0.0 | 0.0 | 0.00 | 0.00 | 0.00 | 95 | 1019.6 |
| 20260502115451 | 3 | 198 | 0.0 | 0.0 | 0.00 | 0.00 | 0.00 | 96 | 1019.9 |
| 20260502114813 | 3 | 98 | 0.0 | 0.0 | 0.00 | 0.00 | 0.00 | 96 | 1019.9 |
| 20260502114232 | 3 | 101 | 0.0 | 0.0 | 0.00 | 0.00 | 0.00 | 96 | 1019.6 |
| 20260502113611 | 2 | 196 | 0.0 | 0.0 | 0.00 | 0.00 | 0.00 | 96 | 1019.6 |
| 20260502113039 | 2 | 220 | 0.0 | 0.0 | 0.00 | 0.00 | 0.00 | 96 | 1019.6 |
| 20260502112437 | 2 | 211 | 0.0 | 0.0 | 0.00 | 0.00 | 0.00 | 96 | 1019.6 |
| 20260502111828 | 2 | 217 | 0.0 | 0.0 | 0.00 | 0.00 | 0.00 | 96 | 1019.6 |
| 20260502111226 | 2 | 140 | 0.0 | 0.0 | 0.00 | 0.00 | 0.00 | 96 | 1019.3 |
| 20260502110017 | 2 | 302 | 1.6 | 1.6 | 0.00 | 0.00 | 0.00 | 96 | 1019.3 |
| 20260502105418 | 2 | 288 | 0.0 | 1.6 | 0.00 | 0.00 | 0.00 | 96 | 1019.3 |
| 20260502104829 | 2 | 175 | 0.0 | 0.0 | 0.00 | 0.00 | 0.00 | 96 | 1019.3 |
| 20260502104217 | 2 | 125 | 0.0 | 0.0 | 0.00 | 0.00 | 0.00 | 96 | 1019.3 |
| 20260502103635 | 2 | 106 | 0.0 | 0.0 | 0.00 | 0.00 | 0.00 | 96 | 1019.3 |
| 20260502103043 | 2 | 95 | 0.0 | 0.0 | 0.00 | 0.00 | 0.00 | 95 | 1019.3 |
| 20260502102419 | 2 | 79 | 0.0 | 0.0 | 0.00 | 0.00 | 0.00 | 95 | 1019.3 |
| 20260502101846 | 2 | 55 | 0.0 | 1.6 | 0.00 | 0.00 | 0.00 | 95 | 1019.3 |
| 20260502100630 | 2 | 74 | 3.2 | 3.2 | 0.00 | 0.00 | 0.00 | 95 | 1019.3 |
| 20260502091252 | 3 | 184 | 0.0 | 0.0 | 0.00 | 0.00 | 0.00 | 94 | 1019.6 |
| 20260502090624 | 3 | 129 | 0.0 | 0.0 | 0.00 | 0.00 | 0.00 | 94 | 1019.6 |
| 20260502071224 | 3 | 208 | 0.0 | 0.0 | 0.00 | 0.00 | 0.00 | 87 | 1019.3 |
| 20260502070652 | 4 | 122 | 0.0 | 0.0 | 0.00 | 0.00 | 0.00 | 87 | 1019.3 |
| 20260502070035 | 4 | 7 | 0.0 | 1.6 | 0.00 | 0.00 | 0.00 | 88 | 1019.3 |